START_TIME,STEP,MOV.,AL01,t_acc.,AL02,t_acc.,E37,t_acc.,H21,t_acc.
1979-08-03 18:00:33.020 ,1,1,0.,24.0,0.,24.0,2.,24.0,0.,24.0
1979-08-03 18:00:57.020 ,2,1,0.,24.0,0.,24.0,1.,24.0,0.,24.0
1979-08-03 18:01:21.020 ,6,1,0.,24.0,0.,24.0,1.,24.0,0.,24.0
1979-08-03 18:01:45.020 ,5,1,10.,24.0,0.,24.0,0.,24.0,0.,24.0
1979-08-03 18:02:09.020 ,1,1,0.,24.0,0.,24.0,0.,24.0,0.,24.0
1979-08-03 18:02:33.020 ,2,1,0.,24.0,0.,24.0,1.,24.0,0.,24.0
1979-08-03 18:02:57.020 ,6,1,0.,24.0,0.,24.0,0.,24.0,0.,24.0
1979-08-03 18:03:21.020 ,5,1,16.,24.0,0.,24.0,0.,24.0,0.,24.0
1979-08-03 18:03:45.020 ,1,1,0.,24.0,0.,24.0,0.,24.0,0.,24.0
1979-08-03 18:04:09.020 ,2,1,0.,24.0,1.,24.0,0.,24.0,0.,24.0
1979-08-03 18:04:33.020 ,6,1,0.,24.0,0.,24.0,0.,24.0,0.,24.0
1979-08-03 18:04:57.020 ,5,1,11.,24.0,0.,24.0,0.,24.0,0.,24.0
1979-08-03 18:05:21.020 ,1,1,1.,24.0,0.,24.0,0.,24.0,0.,24.0
1979-08-03 18:05:45.020 ,0,0,0.,24.0,0.,24.0,0.,24.0,0.,24.0
1979-08-03 18:06:09.020 ,0,0,0.,24.0,0.,24.0,0.,24.0,0.,24.0
1979-08-03 18:06:33.020 ,5,1,14.,24.0,0.,24.0,0.,24.0,0.,24.0
1979-08-03 18:06:57.020 ,5,0,0.,24.0,0.,24.0,0.,24.0,0.,24.0
1979-08-03 18:07:21.020 ,4,1,0.,24.0,1.,24.0,0.,24.0,0.,24.0
1979-08-03 18:07:45.020 ,4,0,0.,24.0,0.,24.0,1.,24.0,0.,24.0
1979-08-03 18:08:09.020 ,3,1,0.,24.0,0.,24.0,0.,24.0,0.,24.0
1979-08-03 18:08:33.020 ,3,0,0.,24.0,0.,24.0,0.,24.0,0.,24.0
1979-08-03 18:08:57.020 ,2,1,0.,24.0,0.,24.0,0.,24.0,0.,24.0
1979-08-03 18:09:21.020 ,2,0,0.,24.0,0.,24.0,0.,24.0,0.,24.0
1979-08-03 18:09:45.020 ,1,1,0.,24.0,0.,24.0,0.,24.0,0.,24.0
1979-08-03 18:10:09.020 ,1,0,0.,24.0,0.,24.0,0.,24.0,0.,24.0
1979-08-03 18:10:33.020 ,0,1,0.,24.0,0.,24.0,0.,24.0,0.,24.0
1979-08-03 18:10:57.020 ,0,0,0.,24.0,0.,24.0,0.,24.0,0.,24.0
1979-08-03 18:11:21.020 ,0,1,1.,24.0,0.,24.0,0.,24.0,0.,24.0
1979-08-03 18:11:45.020 ,0,0,0.,24.0,0.,24.0,0.,24.0,0.,24.0
1979-08-03 18:12:09.020 ,1,1,0.,24.0,0.,24.0,0.,24.0,0.,24.0
1979-08-03 18:12:33.020 ,1,0,0.,24.0,0.,24.0,0.,24.0,0.,24.0
1979-08-03 18:12:57.020 ,2,1,0.,24.0,0.,24.0,2.,24.0,0.,24.0
1979-08-03 18:13:21.020 ,2,0,0.,24.0,0.,24.0,0.,24.0,0.,24.0
1979-08-03 18:13:45.020 ,3,1,0.,24.0,0.,24.0,0.,24.0,0.,24.0
1979-08-03 18:14:09.020 ,3,0,0.,24.0,0.,24.0,0.,24.0,0.,24.0
1979-08-03 18:14:33.020 ,4,1,0.,24.0,0.,24.0,1.,24.0,0.,24.0
1979-08-03 18:14:57.020 ,4,0,0.,24.0,0.,24.0,0.,24.0,0.,24.0
1979-08-03 18:15:21.020 ,5,1,0.,24.0,0.,24.0,0.,24.0,0.,24.0
1979-08-03 18:15:45.020 ,5,0,0.,24.0,0.,24.0,0.,24.0,0.,24.0
1979-08-03 18:16:09.020 ,6,1,1.,24.0,0.,24.0,0.,24.0,0.,24.0
1979-08-03 18:16:33.020 ,6,0,0.,24.0,0.,24.0,1.,24.0,0.,24.0
1979-08-03 18:16:57.020 ,7,1,2.,24.0,0.,24.0,2.,24.0,0.,24.0
1979-08-03 18:17:21.020 ,7,0,26.,24.0,0.,24.0,0.,24.0,0.,24.0
1979-08-03 18:17:45.020 ,7,1,38.,24.0,0.,24.0,0.,24.0,0.,24.0
1979-08-03 18:18:09.020 ,7,0,26.,24.0,0.,24.0,0.,24.0,0.,24.0
1979-08-03 18:18:33.020 ,6,1,27.,24.0,0.,24.0,0.,24.0,0.,24.0
1979-08-03 18:18:57.020 ,6,0,1.,24.0,0.,24.0,0.,24.0,0.,24.0
1979-08-03 18:19:21.020 ,5,1,0.,24.0,0.,24.0,0.,24.0,0.,24.0
1979-08-03 18:19:45.020 ,5,0,0.,24.0,1.,24.0,1.,24.0,0.,24.0
1979-08-03 18:20:09.020 ,4,1,0.,24.0,0.,24.0,0.,24.0,0.,24.0
1979-08-03 18:20:33.020 ,4,0,0.,24.0,0.,24.0,0.,24.0,0.,24.0
1979-08-03 18:20:57.020 ,3,1,0.,24.0,0.,24.0,0.,24.0,0.,24.0
1979-08-03 18:21:21.020 ,3,0,0.,24.0,0.,24.0,0.,24.0,0.,24.0
1979-08-03 18:21:45.020 ,2,1,0.,24.0,1.,24.0,0.,24.0,0.,24.0
1979-08-03 18:22:09.020 ,2,0,0.,24.0,0.,24.0,0.,24.0,0.,24.0
1979-08-03 18:22:33.020 ,1,1,0.,24.0,0.,24.0,0.,24.0,0.,24.0
1979-08-03 18:22:57.020 ,1,0,1.,24.0,0.,24.0,0.,24.0,0.,24.0
1979-08-03 18:23:21.020 ,0,1,0.,24.0,0.,24.0,1.,24.0,0.,24.0
1979-08-03 18:23:45.020 ,0,0,0.,24.0,0.,24.0,1.,24.0,0.,24.0
1979-08-03 18:24:09.020 ,0,1,0.,24.0,0.,24.0,0.,24.0,0.,24.0
1979-08-03 18:24:33.020 ,0,0,0.,24.0,0.,24.0,0.,24.0,0.,24.0
1979-08-03 18:24:57.020 ,1,1,0.,24.0,0.,24.0,0.,24.0,0.,24.0
1979-08-03 18:25:21.020 ,1,0,0.,24.0,0.,24.0,0.,24.0,0.,24.0
1979-08-03 18:25:45.020 ,2,1,0.,24.0,0.,24.0,0.,24.0,0.,24.0
1979-08-03 18:26:09.020 ,2,0,0.,24.0,0.,24.0,0.,24.0,0.,24.0
1979-08-03 18:26:33.020 ,3,1,0.,24.0,0.,24.0,0.,24.0,0.,24.0
1979-08-03 18:26:57.020 ,3,0,0.,24.0,0.,24.0,0.,24.0,0.,24.0
1979-08-03 18:27:21.020 ,4,1,0.,24.0,0.,24.0,1.,24.0,0.,24.0
1979-08-03 18:27:45.020 ,4,0,0.,24.0,0.,24.0,2.,24.0,0.,24.0
1979-08-03 18:28:09.020 ,5,1,1.,24.0,0.,24.0,1.,24.0,0.,24.0
1979-08-03 18:28:33.020 ,5,0,1.,24.0,0.,24.0,0.,24.0,0.,24.0
1979-08-03 18:28:57.020 ,6,1,0.,24.0,0.,24.0,0.,24.0,0.,24.0
1979-08-03 18:29:21.020 ,6,0,0.,24.0,0.,24.0,0.,24.0,0.,24.0
1979-08-03 18:29:45.020 ,7,1,11.,24.0,0.,24.0,0.,24.0,0.,24.0
1979-08-03 18:30:09.020 ,7,0,24.,24.0,0.,24.0,0.,24.0,0.,24.0
1979-08-03 18:30:33.020 ,7,1,32.,24.0,0.,24.0,0.,24.0,0.,24.0
1979-08-03 18:30:57.020 ,7,0,26.,24.0,0.,24.0,0.,24.0,0.,24.0
1979-08-03 18:31:21.020 ,6,1,29.,24.0,0.,24.0,0.,24.0,0.,24.0
1979-08-03 18:31:45.020 ,6,0,1.,24.0,0.,24.0,0.,24.0,0.,24.0
1979-08-03 18:32:09.020 ,5,1,0.,24.0,0.,24.0,0.,24.0,0.,24.0
1979-08-03 18:32:33.020 ,5,0,0.,24.0,0.,24.0,0.,24.0,0.,24.0
1979-08-03 18:32:57.020 ,4,1,0.,24.0,0.,24.0,0.,24.0,0.,24.0
1979-08-03 18:33:21.020 ,4,0,0.,24.0,0.,24.0,0.,24.0,0.,24.0
1979-08-03 18:33:45.020 ,3,1,0.,24.0,0.,24.0,0.,24.0,0.,24.0
1979-08-03 18:34:09.020 ,3,0,0.,24.0,0.,24.0,1.,24.0,0.,24.0
1979-08-03 18:34:33.020 ,2,1,0.,24.0,0.,24.0,0.,24.0,0.,24.0
1979-08-03 18:34:57.020 ,2,0,0.,24.0,0.,24.0,0.,24.0,0.,24.0
1979-08-03 18:35:21.020 ,1,1,1.,24.0,0.,24.0,0.,24.0,0.,24.0
1979-08-03 18:35:45.020 ,1,0,0.,24.0,0.,24.0,1.,24.0,0.,24.0
1979-08-03 18:36:09.020 ,0,1,0.,24.0,0.,24.0,0.,24.0,0.,24.0
1979-08-03 18:36:33.020 ,0,0,1.,24.0,0.,24.0,0.,24.0,0.,24.0
1979-08-03 18:36:57.020 ,0,1,0.,24.0,0.,24.0,0.,24.0,0.,24.0
1979-08-03 18:37:21.020 ,0,0,0.,24.0,1.,24.0,0.,24.0,0.,24.0
1979-08-03 18:37:45.020 ,1,1,0.,24.0,0.,24.0,0.,24.0,0.,24.0
1979-08-03 18:38:09.020 ,1,0,0.,24.0,0.,24.0,0.,24.0,0.,24.0
1979-08-03 18:38:33.020 ,2,1,0.,24.0,0.,24.0,0.,24.0,0.,24.0
1979-08-03 18:38:57.020 ,2,0,0.,24.0,0.,24.0,0.,24.0,0.,24.0
1979-08-03 18:39:21.020 ,3,1,0.,24.0,0.,24.0,0.,24.0,0.,24.0
1979-08-03 18:39:45.020 ,3,0,0.,24.0,0.,24.0,1.,24.0,0.,24.0
1979-08-03 18:40:09.020 ,4,1,0.,24.0,0.,24.0,0.,24.0,0.,24.0
1979-08-03 18:40:33.020 ,4,0,0.,24.0,0.,24.0,0.,24.0,0.,24.0
1979-08-03 18:40:57.020 ,5,1,0.,24.0,0.,24.0,1.,24.0,0.,24.0
1979-08-03 18:41:21.020 ,5,0,0.,24.0,0.,24.0,0.,24.0,0.,24.0
1979-08-03 18:41:45.020 ,6,1,0.,24.0,0.,24.0,1.,24.0,0.,24.0
1979-08-03 18:42:09.020 ,6,0,0.,24.0,0.,24.0,0.,24.0,0.,24.0
1979-08-03 18:42:33.020 ,7,0,5.,24.0,0.,24.0,0.,24.0,0.,24.0
1979-08-03 18:42:57.020 ,7,0,36.,24.0,0.,24.0,0.,24.0,0.,24.0
1979-08-03 18:43:21.020 ,5,1,20.,24.0,0.,24.0,2.,24.0,0.,24.0
1979-08-03 18:43:45.020 ,1,1,0.,24.0,0.,24.0,0.,24.0,0.,24.0
1979-08-03 18:44:09.020 ,2,1,0.,24.0,0.,24.0,0.,24.0,0.,24.0
1979-08-03 18:44:33.020 ,6,1,0.,24.0,0.,24.0,2.,24.0,0.,24.0
1979-08-03 18:44:57.020 ,5,1,14.,24.0,0.,24.0,0.,24.0,0.,24.0
1979-08-03 18:45:21.020 ,1,1,0.,24.0,0.,24.0,0.,24.0,0.,24.0
1979-08-03 18:45:45.020 ,2,1,0.,24.0,0.,24.0,0.,24.0,0.,24.0
1979-08-03 18:46:09.020 ,6,1,0.,24.0,0.,24.0,1.,24.0,0.,24.0
1979-08-03 18:46:33.020 ,5,1,17.,24.0,0.,24.0,0.,24.0,0.,24.0
1979-08-03 18:46:57.020 ,1,1,0.,24.0,0.,24.0,0.,24.0,0.,24.0
1979-08-03 18:47:21.020 ,2,1,0.,24.0,0.,24.0,0.,24.0,0.,24.0
1979-08-03 18:47:45.020 ,6,1,0.,24.0,0.,24.0,0.,24.0,0.,24.0
1979-08-03 18:48:09.020 ,5,1,11.,24.0,0.,24.0,0.,24.0,0.,24.0
1979-08-03 18:48:33.020 ,1,1,0.,24.0,0.,24.0,0.,24.0,0.,24.0
1979-08-03 18:48:57.020 ,2,1,1.,24.0,0.,24.0,0.,24.0,0.,24.0
1979-08-03 18:49:21.020 ,6,1,0.,24.0,0.,24.0,0.,24.0,0.,24.0
1979-08-03 18:49:45.020 ,5,1,11.,24.0,0.,24.0,0.,24.0,0.,24.0
1979-08-03 18:50:09.020 ,1,1,0.,24.0,0.,24.0,1.,24.0,0.,24.0
1979-08-03 18:50:33.020 ,2,1,0.,24.0,0.,24.0,0.,24.0,0.,24.0
1979-08-03 18:50:57.020 ,6,1,0.,24.0,0.,24.0,1.,24.0,0.,24.0
1979-08-03 18:51:21.020 ,5,1,14.,24.0,0.,24.0,0.,24.0,0.,24.0
1979-08-03 18:51:45.020 ,1,1,0.,24.0,0.,24.0,0.,24.0,0.,24.0
1979-08-03 18:52:09.020 ,2,1,0.,24.0,0.,24.0,1.,24.0,0.,24.0
1979-08-03 18:52:33.020 ,6,1,0.,24.0,0.,24.0,0.,24.0,0.,24.0
1979-08-03 18:52:57.020 ,5,1,25.,24.0,0.,24.0,3.,24.0,0.,24.0
1979-08-03 18:53:21.020 ,1,1,0.,24.0,0.,24.0,0.,24.0,0.,24.0
1979-08-03 18:53:45.020 ,0,0,0.,24.0,0.,24.0,0.,24.0,0.,24.0
1979-08-03 18:54:09.020 ,0,0,0.,24.0,0.,24.0,1.,24.0,0.,24.0
1979-08-03 18:54:33.020 ,5,1,16.,24.0,0.,24.0,0.,24.0,0.,24.0
1979-08-03 18:54:57.020 ,5,0,0.,24.0,0.,24.0,0.,24.0,0.,24.0
1979-08-03 18:55:21.020 ,4,1,0.,24.0,0.,24.0,2.,24.0,0.,24.0
1979-08-03 18:55:45.020 ,4,0,1.,24.0,0.,24.0,0.,24.0,0.,24.0
1979-08-03 18:56:09.020 ,3,1,0.,24.0,0.,24.0,0.,24.0,0.,24.0
1979-08-03 18:56:33.020 ,3,0,0.,24.0,0.,24.0,0.,24.0,0.,24.0
1979-08-03 18:56:57.020 ,2,1,0.,24.0,0.,24.0,0.,24.0,0.,24.0
1979-08-03 18:57:21.020 ,2,0,0.,24.0,0.,24.0,0.,24.0,0.,24.0
1979-08-03 18:57:45.020 ,1,1,0.,24.0,0.,24.0,0.,24.0,0.,24.0
1979-08-03 18:58:09.020 ,1,0,0.,24.0,0.,24.0,0.,24.0,0.,24.0
1979-08-03 18:58:33.020 ,0,1,0.,24.0,0.,24.0,0.,24.0,0.,24.0
1979-08-03 18:58:57.020 ,0,0,0.,24.0,0.,24.0,0.,24.0,0.,24.0
1979-08-03 18:59:21.020 ,0,1,0.,24.0,0.,24.0,0.,24.0,0.,24.0
1979-08-03 18:59:45.020 ,0,0,0.,24.0,0.,24.0,1.,24.0,0.,24.0
1979-08-03 19:00:09.020 ,1,1,0.,24.0,0.,24.0,0.,24.0,0.,24.0
1979-08-03 19:00:33.020 ,1,0,0.,24.0,0.,24.0,0.,24.0,0.,24.0
1979-08-03 19:00:57.020 ,2,1,0.,24.0,0.,24.0,0.,24.0,0.,24.0
1979-08-03 19:01:21.020 ,2,0,1.,24.0,0.,24.0,0.,24.0,0.,24.0
1979-08-03 19:01:45.020 ,3,1,0.,24.0,0.,24.0,0.,24.0,0.,24.0
1979-08-03 19:02:09.020 ,3,0,0.,24.0,0.,24.0,0.,24.0,0.,24.0
1979-08-03 19:02:33.020 ,4,1,1.,24.0,0.,24.0,0.,24.0,0.,24.0
1979-08-03 19:02:57.020 ,4,0,0.,24.0,0.,24.0,0.,24.0,0.,24.0
1979-08-03 19:03:21.020 ,5,1,0.,24.0,0.,24.0,1.,24.0,0.,24.0
1979-08-03 19:03:45.020 ,5,0,0.,24.0,0.,24.0,2.,24.0,0.,24.0
1979-08-03 19:04:09.020 ,6,1,0.,24.0,0.,24.0,0.,24.0,0.,24.0
1979-08-03 19:04:33.020 ,6,0,0.,24.0,0.,24.0,2.,24.0,0.,24.0
1979-08-03 19:04:57.020 ,7,1,7.,24.0,0.,24.0,0.,24.0,0.,24.0
1979-08-03 19:05:21.020 ,7,0,30.,24.0,1.,24.0,0.,24.0,0.,24.0
1979-08-03 19:05:45.020 ,7,1,31.,24.0,0.,24.0,0.,24.0,0.,24.0
1979-08-03 19:06:09.020 ,7,0,39.,24.0,0.,24.0,3.,24.0,0.,24.0
1979-08-03 19:06:33.020 ,6,1,20.,24.0,0.,24.0,0.,24.0,0.,24.0
1979-08-03 19:06:57.020 ,6,0,0.,24.0,0.,24.0,1.,24.0,0.,24.0
1979-08-03 19:07:21.020 ,5,1,0.,24.0,0.,24.0,1.,24.0,0.,24.0
1979-08-03 19:07:45.020 ,5,0,0.,24.0,0.,24.0,1.,24.0,0.,24.0
1979-08-03 19:08:09.020 ,4,1,0.,24.0,0.,24.0,1.,24.0,0.,24.0
1979-08-03 19:08:33.020 ,4,0,0.,24.0,0.,24.0,0.,24.0,0.,24.0
1979-08-03 19:08:57.020 ,3,1,0.,24.0,0.,24.0,0.,24.0,0.,24.0
1979-08-03 19:09:21.020 ,3,0,0.,24.0,0.,24.0,1.,24.0,0.,24.0
1979-08-03 19:09:45.020 ,2,1,0.,24.0,0.,24.0,0.,24.0,0.,24.0
1979-08-03 19:10:09.020 ,2,0,0.,24.0,0.,24.0,0.,24.0,0.,24.0
1979-08-03 19:10:33.020 ,1,1,0.,24.0,0.,24.0,0.,24.0,0.,24.0
1979-08-03 19:10:57.020 ,1,0,0.,24.0,0.,24.0,0.,24.0,0.,24.0
1979-08-03 19:11:21.020 ,0,1,0.,24.0,0.,24.0,0.,24.0,0.,24.0
1979-08-03 19:11:45.020 ,0,0,0.,24.0,0.,24.0,0.,24.0,0.,24.0
1979-08-03 19:12:09.020 ,0,1,0.,24.0,0.,24.0,0.,24.0,0.,24.0
1979-08-03 19:12:33.020 ,0,0,0.,24.0,0.,24.0,1.,24.0,0.,24.0
1979-08-03 19:12:57.020 ,1,1,0.,24.0,0.,24.0,0.,24.0,0.,24.0
1979-08-03 19:13:21.020 ,1,0,0.,24.0,0.,24.0,0.,24.0,0.,24.0
1979-08-03 19:13:45.020 ,2,1,0.,24.0,0.,24.0,0.,24.0,0.,24.0
1979-08-03 19:14:09.020 ,2,0,0.,24.0,0.,24.0,0.,24.0,0.,24.0
1979-08-03 19:14:33.020 ,3,1,0.,24.0,1.,24.0,0.,24.0,0.,24.0
1979-08-03 19:14:57.020 ,3,0,0.,24.0,0.,24.0,0.,24.0,0.,24.0
1979-08-03 19:15:21.020 ,4,1,0.,24.0,0.,24.0,0.,24.0,0.,24.0
1979-08-03 19:15:45.020 ,4,0,0.,24.0,0.,24.0,1.,24.0,0.,24.0
1979-08-03 19:16:09.020 ,5,1,0.,24.0,0.,24.0,0.,24.0,0.,24.0
1979-08-03 19:16:33.020 ,5,0,0.,24.0,0.,24.0,0.,24.0,0.,24.0
1979-08-03 19:16:57.020 ,6,1,0.,24.0,0.,24.0,0.,24.0,0.,24.0
1979-08-03 19:17:21.020 ,6,0,0.,24.0,0.,24.0,1.,24.0,0.,24.0
1979-08-03 19:17:45.020 ,7,1,6.,24.0,0.,24.0,0.,24.0,0.,24.0
1979-08-03 19:18:09.020 ,7,0,28.,24.0,0.,24.0,0.,24.0,0.,24.0
1979-08-03 19:18:33.020 ,7,1,29.,24.0,0.,24.0,0.,24.0,0.,24.0
1979-08-03 19:18:57.020 ,7,0,25.,24.0,0.,24.0,0.,24.0,0.,24.0
1979-08-03 19:19:21.020 ,6,1,27.,24.0,0.,24.0,0.,24.0,0.,24.0
1979-08-03 19:19:45.020 ,6,0,0.,24.0,1.,24.0,0.,24.0,0.,24.0
1979-08-03 19:20:09.020 ,5,1,0.,24.0,0.,24.0,0.,24.0,0.,24.0
1979-08-03 19:20:33.020 ,5,0,0.,24.0,0.,24.0,0.,24.0,0.,24.0
1979-08-03 19:20:57.020 ,4,1,0.,24.0,0.,24.0,1.,24.0,0.,24.0
1979-08-03 19:21:21.020 ,4,0,0.,24.0,0.,24.0,0.,24.0,0.,24.0
1979-08-03 19:21:45.020 ,3,1,0.,24.0,0.,24.0,1.,24.0,0.,24.0
1979-08-03 19:22:09.020 ,3,0,0.,24.0,0.,24.0,0.,24.0,0.,24.0
1979-08-03 19:22:33.020 ,2,1,0.,24.0,0.,24.0,0.,24.0,0.,24.0
1979-08-03 19:22:57.020 ,2,0,0.,24.0,0.,24.0,0.,24.0,0.,24.0
1979-08-03 19:23:21.020 ,1,1,0.,24.0,0.,24.0,0.,24.0,0.,24.0
1979-08-03 19:23:45.020 ,1,0,0.,24.0,0.,24.0,0.,24.0,0.,24.0
1979-08-03 19:24:09.020 ,0,1,1.,24.0,0.,24.0,0.,24.0,0.,24.0
1979-08-03 19:24:33.020 ,0,0,0.,24.0,0.,24.0,1.,24.0,0.,24.0
1979-08-03 19:24:57.020 ,0,1,0.,24.0,0.,24.0,0.,24.0,0.,24.0
1979-08-03 19:25:21.020 ,0,0,0.,24.0,1.,24.0,1.,24.0,0.,24.0
1979-08-03 19:25:45.020 ,1,1,0.,24.0,0.,24.0,0.,24.0,0.,24.0
1979-08-03 19:26:09.020 ,1,0,0.,24.0,0.,24.0,0.,24.0,0.,24.0
1979-08-03 19:26:33.020 ,2,1,0.,24.0,0.,24.0,0.,24.0,0.,24.0
1979-08-03 19:26:57.020 ,2,0,0.,24.0,0.,24.0,0.,24.0,0.,24.0
1979-08-03 19:27:21.020 ,3,1,0.,24.0,0.,24.0,0.,24.0,0.,24.0
1979-08-03 19:27:45.020 ,3,0,0.,24.0,0.,24.0,1.,24.0,0.,24.0
1979-08-03 19:28:09.020 ,4,1,0.,24.0,0.,24.0,1.,24.0,0.,24.0
1979-08-03 19:28:33.020 ,4,0,0.,24.0,0.,24.0,0.,24.0,0.,24.0
1979-08-03 19:28:57.020 ,5,1,0.,24.0,0.,24.0,0.,24.0,0.,24.0
1979-08-03 19:29:21.020 ,5,0,0.,24.0,0.,24.0,1.,24.0,0.,24.0
1979-08-03 19:29:45.020 ,6,1,0.,24.0,0.,24.0,0.,24.0,0.,24.0
1979-08-03 19:30:09.020 ,6,0,0.,24.0,0.,24.0,2.,24.0,0.,24.0
1979-08-03 19:30:33.020 ,7,0,7.,24.0,0.,24.0,1.,24.0,0.,24.0
1979-08-03 19:30:57.020 ,7,0,39.,24.0,0.,24.0,0.,24.0,0.,24.0
1979-08-03 19:31:21.020 ,5,1,12.,24.0,0.,24.0,0.,24.0,0.,24.0
1979-08-03 19:31:45.020 ,1,1,0.,24.0,0.,24.0,0.,24.0,0.,24.0
1979-08-03 19:32:09.020 ,2,1,0.,24.0,0.,24.0,0.,24.0,0.,24.0
1979-08-03 19:32:33.020 ,6,1,0.,24.0,0.,24.0,0.,24.0,0.,24.0
1979-08-03 19:32:57.020 ,5,1,17.,24.0,0.,24.0,0.,24.0,0.,24.0
1979-08-03 19:33:21.020 ,1,1,0.,24.0,0.,24.0,0.,24.0,0.,24.0
1979-08-03 19:33:45.020 ,2,1,0.,24.0,0.,24.0,0.,24.0,0.,24.0
1979-08-03 19:34:09.020 ,6,1,1.,24.0,0.,24.0,0.,24.0,0.,24.0
1979-08-03 19:34:33.020 ,5,1,14.,24.0,0.,24.0,0.,24.0,0.,24.0
1979-08-03 19:34:57.020 ,1,1,0.,24.0,0.,24.0,1.,24.0,0.,24.0
1979-08-03 19:35:21.020 ,2,1,0.,24.0,0.,24.0,0.,24.0,0.,24.0
1979-08-03 19:35:45.020 ,6,1,0.,24.0,0.,24.0,0.,24.0,0.,24.0
1979-08-03 19:36:09.020 ,5,1,12.,24.0,0.,24.0,1.,24.0,0.,24.0
1979-08-03 19:36:33.020 ,1,1,0.,24.0,0.,24.0,1.,24.0,0.,24.0
1979-08-03 19:36:57.020 ,2,1,0.,24.0,0.,24.0,0.,24.0,0.,24.0
1979-08-03 19:37:21.020 ,6,1,0.,24.0,0.,24.0,0.,24.0,0.,24.0
1979-08-03 19:37:45.020 ,5,1,18.,24.0,1.,24.0,0.,24.0,0.,24.0
1979-08-03 19:38:09.020 ,1,1,0.,24.0,0.,24.0,0.,24.0,0.,24.0
1979-08-03 19:38:33.020 ,2,1,0.,24.0,0.,24.0,0.,24.0,0.,24.0
1979-08-03 19:38:57.020 ,6,1,0.,24.0,0.,24.0,0.,24.0,0.,24.0
1979-08-03 19:39:21.020 ,5,1,13.,24.0,0.,24.0,0.,24.0,0.,24.0
1979-08-03 19:39:45.020 ,1,1,0.,24.0,0.,24.0,1.,24.0,0.,24.0
1979-08-03 19:40:09.020 ,2,1,0.,24.0,1.,24.0,0.,24.0,0.,24.0
1979-08-03 19:40:33.020 ,6,1,0.,24.0,0.,24.0,1.,24.0,0.,24.0
1979-08-03 19:40:57.020 ,5,1,13.,24.0,0.,24.0,0.,24.0,0.,24.0
1979-08-03 19:41:21.020 ,1,1,0.,24.0,0.,24.0,0.,24.0,0.,24.0
1979-08-03 19:41:45.020 ,0,0,0.,24.0,0.,24.0,1.,24.0,0.,24.0
1979-08-03 19:42:09.020 ,0,0,0.,24.0,0.,24.0,1.,24.0,0.,24.0
1979-08-03 19:42:33.020 ,5,1,23.,24.0,0.,24.0,0.,24.0,0.,24.0
1979-08-03 19:42:57.020 ,5,0,0.,24.0,0.,24.0,0.,24.0,0.,24.0
1979-08-03 19:43:21.020 ,4,1,0.,24.0,0.,24.0,0.,24.0,0.,24.0
1979-08-03 19:43:45.020 ,4,0,0.,24.0,0.,24.0,0.,24.0,0.,24.0
1979-08-03 19:44:09.020 ,3,1,0.,24.0,0.,24.0,0.,24.0,0.,24.0
1979-08-03 19:44:33.020 ,3,0,0.,24.0,0.,24.0,0.,24.0,0.,24.0
1979-08-03 19:44:57.020 ,2,1,0.,24.0,0.,24.0,0.,24.0,0.,24.0
1979-08-03 19:45:21.020 ,2,0,0.,24.0,0.,24.0,1.,24.0,0.,24.0
1979-08-03 19:45:45.020 ,1,1,1.,24.0,0.,24.0,0.,24.0,0.,24.0
1979-08-03 19:46:09.020 ,1,0,0.,24.0,1.,24.0,0.,24.0,0.,24.0
1979-08-03 19:46:33.020 ,0,1,0.,24.0,0.,24.0,0.,24.0,0.,24.0
1979-08-03 19:46:57.020 ,0,0,0.,24.0,0.,24.0,0.,24.0,0.,24.0
1979-08-03 19:47:21.020 ,0,1,0.,24.0,0.,24.0,0.,24.0,0.,24.0
1979-08-03 19:47:45.020 ,0,0,0.,24.0,0.,24.0,0.,24.0,0.,24.0
1979-08-03 19:48:09.020 ,1,1,0.,24.0,0.,24.0,0.,24.0,0.,24.0
1979-08-03 19:48:33.020 ,1,0,0.,24.0,0.,24.0,1.,24.0,0.,24.0
1979-08-03 19:48:57.020 ,2,1,0.,24.0,0.,24.0,1.,24.0,0.,24.0
1979-08-03 19:49:21.020 ,2,0,0.,24.0,0.,24.0,0.,24.0,0.,24.0
1979-08-03 19:49:45.020 ,3,1,0.,24.0,0.,24.0,0.,24.0,0.,24.0
1979-08-03 19:50:09.020 ,3,0,0.,24.0,0.,24.0,0.,24.0,0.,24.0
1979-08-03 19:50:33.020 ,4,1,0.,24.0,0.,24.0,0.,24.0,0.,24.0
1979-08-03 19:50:57.020 ,4,0,0.,24.0,0.,24.0,0.,24.0,0.,24.0
1979-08-03 19:51:21.020 ,5,1,0.,24.0,0.,24.0,0.,24.0,0.,24.0
1979-08-03 19:51:45.020 ,5,0,0.,24.0,0.,24.0,1.,24.0,0.,24.0
1979-08-03 19:52:09.020 ,6,1,1.,24.0,0.,24.0,1.,24.0,0.,24.0
1979-08-03 19:52:33.020 ,6,0,0.,24.0,0.,24.0,0.,24.0,0.,24.0
1979-08-03 19:52:57.020 ,7,1,9.,24.0,0.,24.0,0.,24.0,0.,24.0
1979-08-03 19:53:21.020 ,7,0,38.,24.0,0.,24.0,0.,24.0,0.,24.0
1979-08-03 19:53:45.020 ,7,1,31.,24.0,0.,24.0,0.,24.0,0.,24.0
1979-08-03 19:54:09.020 ,7,0,19.,24.0,0.,24.0,1.,24.0,0.,24.0
1979-08-03 19:54:33.020 ,6,1,27.,24.0,0.,24.0,0.,24.0,0.,24.0
1979-08-03 19:54:57.020 ,6,0,0.,24.0,1.,24.0,0.,24.0,0.,24.0
1979-08-03 19:55:21.020 ,5,1,0.,24.0,0.,24.0,0.,24.0,0.,24.0
1979-08-03 19:55:45.020 ,5,0,0.,24.0,0.,24.0,0.,24.0,0.,24.0
1979-08-03 19:56:09.020 ,4,1,0.,24.0,0.,24.0,0.,24.0,0.,24.0
1979-08-03 19:56:33.020 ,4,0,0.,24.0,0.,24.0,0.,24.0,0.,24.0
1979-08-03 19:56:57.020 ,3,1,0.,24.0,0.,24.0,1.,24.0,0.,24.0
1979-08-03 19:57:21.020 ,3,0,0.,24.0,0.,24.0,0.,24.0,0.,24.0
1979-08-03 19:57:45.020 ,2,1,0.,24.0,0.,24.0,0.,24.0,0.,24.0
1979-08-03 19:58:09.020 ,2,0,0.,24.0,0.,24.0,1.,24.0,0.,24.0
1979-08-03 19:58:33.020 ,1,1,0.,24.0,0.,24.0,0.,24.0,0.,24.0
1979-08-03 19:58:57.020 ,1,0,0.,24.0,0.,24.0,0.,24.0,0.,24.0
1979-08-03 19:59:21.020 ,0,1,0.,24.0,0.,24.0,0.,24.0,0.,24.0
1979-08-03 19:59:45.020 ,0,0,0.,24.0,0.,24.0,0.,24.0,0.,24.0
1979-08-03 20:00:09.020 ,0,1,1.,24.0,0.,24.0,0.,24.0,0.,24.0
1979-08-03 20:00:33.020 ,0,0,0.,24.0,0.,24.0,0.,24.0,0.,24.0
1979-08-03 20:00:57.020 ,1,1,0.,24.0,0.,24.0,0.,24.0,0.,24.0
1979-08-03 20:01:21.020 ,1,0,1.,24.0,0.,24.0,0.,24.0,0.,24.0
1979-08-03 20:01:45.020 ,2,1,0.,24.0,0.,24.0,0.,24.0,0.,24.0
1979-08-03 20:02:09.020 ,2,0,0.,24.0,0.,24.0,1.,24.0,0.,24.0
1979-08-03 20:02:33.020 ,3,1,0.,24.0,0.,24.0,0.,24.0,0.,24.0
1979-08-03 20:02:57.020 ,3,0,0.,24.0,0.,24.0,0.,24.0,0.,24.0
1979-08-03 20:03:21.020 ,4,1,0.,24.0,0.,24.0,0.,24.0,0.,24.0
1979-08-03 20:03:45.020 ,4,0,0.,24.0,1.,24.0,0.,24.0,0.,24.0
1979-08-03 20:04:09.020 ,5,1,0.,24.0,0.,24.0,0.,24.0,0.,24.0
1979-08-03 20:04:33.020 ,5,0,0.,24.0,0.,24.0,0.,24.0,0.,24.0
1979-08-03 20:04:57.020 ,6,1,0.,24.0,0.,24.0,0.,24.0,0.,24.0
1979-08-03 20:05:21.020 ,6,0,0.,24.0,0.,24.0,0.,24.0,0.,24.0
1979-08-03 20:05:45.020 ,7,1,10.,24.0,0.,24.0,0.,24.0,0.,24.0
1979-08-03 20:06:09.020 ,7,0,21.,24.0,0.,24.0,1.,24.0,0.,24.0
1979-08-03 20:06:33.020 ,7,1,30.,24.0,0.,24.0,0.,24.0,0.,24.0
1979-08-03 20:06:57.020 ,7,0,29.,24.0,0.,24.0,0.,24.0,0.,24.0
1979-08-03 20:07:21.020 ,6,1,20.,24.0,0.,24.0,0.,24.0,0.,24.0
1979-08-03 20:07:45.020 ,6,0,0.,24.0,0.,24.0,0.,24.0,0.,24.0
1979-08-03 20:08:09.020 ,5,1,0.,24.0,0.,24.0,0.,24.0,0.,24.0
1979-08-03 20:08:33.020 ,5,0,0.,24.0,0.,24.0,0.,24.0,0.,24.0
1979-08-03 20:08:57.020 ,4,1,0.,24.0,0.,24.0,0.,24.0,0.,24.0
1979-08-03 20:09:21.020 ,4,0,0.,24.0,0.,24.0,2.,24.0,0.,24.0
1979-08-03 20:09:45.020 ,3,1,0.,24.0,0.,24.0,0.,24.0,0.,24.0
1979-08-03 20:10:09.020 ,3,0,0.,24.0,0.,24.0,0.,24.0,0.,24.0
1979-08-03 20:10:33.020 ,2,1,0.,24.0,0.,24.0,0.,24.0,0.,24.0
1979-08-03 20:10:57.020 ,2,0,0.,24.0,0.,24.0,0.,24.0,0.,24.0
1979-08-03 20:11:21.020 ,1,1,0.,24.0,0.,24.0,1.,24.0,0.,24.0
1979-08-03 20:11:45.020 ,1,0,0.,24.0,0.,24.0,0.,24.0,0.,24.0
1979-08-03 20:12:09.020 ,0,1,1.,24.0,0.,24.0,1.,24.0,0.,24.0
1979-08-03 20:12:33.020 ,0,0,0.,24.0,0.,24.0,1.,24.0,0.,24.0
1979-08-03 20:12:57.020 ,0,1,0.,24.0,0.,24.0,0.,24.0,0.,24.0
1979-08-03 20:13:21.020 ,0,0,0.,24.0,0.,24.0,0.,24.0,0.,24.0
1979-08-03 20:13:45.020 ,1,1,0.,24.0,0.,24.0,0.,24.0,0.,24.0
1979-08-03 20:14:09.020 ,1,0,0.,24.0,0.,24.0,1.,24.0,0.,24.0
1979-08-03 20:14:33.020 ,2,1,1.,24.0,0.,24.0,1.,24.0,0.,24.0
1979-08-03 20:14:57.020 ,2,0,0.,24.0,0.,24.0,0.,24.0,0.,24.0
1979-08-03 20:15:21.020 ,3,1,1.,24.0,0.,24.0,0.,24.0,0.,24.0
1979-08-03 20:15:45.020 ,3,0,0.,24.0,0.,24.0,1.,24.0,0.,24.0
1979-08-03 20:16:09.020 ,4,1,0.,24.0,0.,24.0,0.,24.0,0.,24.0
1979-08-03 20:16:33.020 ,4,0,0.,24.0,0.,24.0,0.,24.0,0.,24.0
1979-08-03 20:16:57.020 ,5,1,0.,24.0,0.,24.0,0.,24.0,0.,24.0
1979-08-03 20:17:21.020 ,5,0,0.,24.0,0.,24.0,1.,24.0,0.,24.0
1979-08-03 20:17:45.020 ,6,1,0.,24.0,0.,24.0,0.,24.0,0.,24.0
1979-08-03 20:18:09.020 ,6,0,0.,24.0,0.,24.0,0.,24.0,0.,24.0
1979-08-03 20:18:33.020 ,7,0,6.,24.0,0.,24.0,0.,24.0,0.,24.0
1979-08-03 20:18:57.020 ,7,0,32.,24.0,0.,24.0,2.,24.0,0.,24.0
1979-08-03 20:19:21.020 ,5,1,17.,24.0,0.,24.0,0.,24.0,0.,24.0
1979-08-03 20:19:45.020 ,1,1,0.,24.0,0.,24.0,0.,24.0,0.,24.0
1979-08-03 20:20:09.020 ,2,1,0.,24.0,0.,24.0,1.,24.0,0.,24.0
1979-08-03 20:20:33.020 ,6,1,0.,24.0,0.,24.0,0.,24.0,0.,24.0
1979-08-03 20:20:57.020 ,5,1,22.,24.0,0.,24.0,1.,24.0,0.,24.0
1979-08-03 20:21:21.020 ,1,1,0.,24.0,0.,24.0,0.,24.0,0.,24.0
1979-08-03 20:21:45.020 ,2,1,0.,24.0,0.,24.0,1.,24.0,0.,24.0
1979-08-03 20:22:09.020 ,6,1,0.,24.0,0.,24.0,0.,24.0,0.,24.0
1979-08-03 20:22:33.020 ,5,1,15.,24.0,0.,24.0,0.,24.0,0.,24.0
1979-08-03 20:22:57.020 ,1,1,0.,24.0,1.,24.0,0.,24.0,0.,24.0
1979-08-03 20:23:21.020 ,2,1,0.,24.0,0.,24.0,0.,24.0,0.,24.0
1979-08-03 20:23:45.020 ,6,1,0.,24.0,0.,24.0,0.,24.0,0.,24.0
1979-08-03 20:24:09.020 ,5,1,18.,24.0,0.,24.0,0.,24.0,0.,24.0
1979-08-03 20:24:33.020 ,1,1,0.,24.0,0.,24.0,0.,24.0,0.,24.0
1979-08-03 20:24:57.020 ,2,1,0.,24.0,0.,24.0,1.,24.0,0.,24.0
1979-08-03 20:25:21.020 ,6,1,0.,24.0,0.,24.0,0.,24.0,0.,24.0
1979-08-03 20:25:45.020 ,5,1,19.,24.0,0.,24.0,0.,24.0,0.,24.0
1979-08-03 20:26:09.020 ,1,1,0.,24.0,0.,24.0,0.,24.0,0.,24.0
1979-08-03 20:26:33.020 ,2,1,1.,24.0,0.,24.0,1.,24.0,0.,24.0
1979-08-03 20:26:57.020 ,6,1,0.,24.0,1.,24.0,0.,24.0,0.,24.0
1979-08-03 20:27:21.020 ,5,1,12.,24.0,0.,24.0,0.,24.0,0.,24.0
1979-08-03 20:27:45.020 ,1,1,0.,24.0,0.,24.0,0.,24.0,0.,24.0
1979-08-03 20:28:09.020 ,2,1,0.,24.0,0.,24.0,0.,24.0,0.,24.0
1979-08-03 20:28:33.020 ,6,1,0.,24.0,0.,24.0,0.,24.0,0.,24.0
1979-08-03 20:28:57.020 ,5,1,15.,24.0,0.,24.0,1.,24.0,0.,24.0
1979-08-03 20:29:21.020 ,1,1,0.,24.0,0.,24.0,0.,24.0,0.,24.0
1979-08-03 20:29:45.020 ,0,0,0.,24.0,0.,24.0,0.,24.0,0.,24.0
1979-08-03 20:30:09.020 ,0,0,0.,24.0,0.,24.0,0.,24.0,0.,24.0
1979-08-03 20:30:33.020 ,5,1,9.,24.0,0.,24.0,0.,24.0,0.,24.0
1979-08-03 20:30:57.020 ,5,0,0.,24.0,0.,24.0,0.,24.0,0.,24.0
1979-08-03 20:31:21.020 ,4,1,0.,24.0,0.,24.0,0.,24.0,0.,24.0
1979-08-03 20:31:45.020 ,4,0,0.,24.0,0.,24.0,0.,24.0,0.,24.0
1979-08-03 20:32:09.020 ,3,1,0.,24.0,0.,24.0,0.,24.0,0.,24.0
1979-08-03 20:32:33.020 ,3,0,0.,24.0,0.,24.0,1.,24.0,0.,24.0
1979-08-03 20:32:57.020 ,2,1,0.,24.0,0.,24.0,0.,24.0,0.,24.0
1979-08-03 20:33:21.020 ,2,0,0.,24.0,0.,24.0,1.,24.0,0.,24.0
1979-08-03 20:33:45.020 ,1,1,0.,24.0,0.,24.0,1.,24.0,0.,24.0
1979-08-03 20:34:09.020 ,1,0,0.,24.0,0.,24.0,0.,24.0,0.,24.0